| time (UTC) | temp C | wind direction | speed KPH | gust KPH | rain 1hr cm | rain 24hr cm | rain mn cm | humidity % | barometer mb |
| 20260901061505 | 15 | 86 | 0.0 | 0.0 | 0.00 | 1.09 | 1.09 | 84 | 1016.1 |
| 20260901060006 | 15 | 89 | 0.0 | 0.0 | 0.00 | 1.09 | 1.09 | 82 | 1016.0 |
| 20260901054504 | 15 | 360 | 0.0 | 0.0 | 0.00 | 1.09 | 1.09 | 82 | 1015.8 |
| 20260901051504 | 16 | 360 | 0.0 | 0.0 | 0.00 | 1.09 | 1.09 | 80 | 1015.8 |
| 20260901050006 | 16 | 360 | 0.0 | 0.0 | 0.00 | 1.09 | 1.09 | 80 | 1015.7 |
| 20260901044506 | 16 | 360 | 0.0 | 0.0 | 0.00 | 1.09 | 1.09 | 79 | 1015.7 |
| 20260901043005 | 16 | 360 | 0.0 | 0.0 | 0.00 | 1.09 | 1.09 | 78 | 1015.4 |
| 20260901041504 | 16 | 360 | 0.0 | 0.0 | 0.00 | 1.09 | 1.09 | 78 | 1015.1 |
| 20260901040006 | 17 | 360 | 0.0 | 0.0 | 0.00 | 1.09 | 1.09 | 78 | 1015.0 |
| 20260901034504 | 17 | 87 | 0.0 | 1.6 | 0.00 | 1.09 | 1.09 | 78 | 1014.8 |
| 20260901033005 | 17 | 86 | 0.0 | 4.8 | 0.00 | 1.09 | 1.09 | 78 | 1014.7 |
| 20260901031504 | 17 | 360 | 0.0 | 3.2 | 0.00 | 1.09 | 1.09 | 76 | 1014.7 |
| 20260901030007 | 17 | 360 | 0.0 | 0.0 | 0.00 | 1.09 | 1.09 | 75 | 1014.5 |
| 20260901024503 | 17 | 149 | 0.0 | 0.0 | 0.00 | 1.09 | 1.09 | 77 | 1014.5 |
| 20260901023004 | 17 | 149 | 0.0 | 0.0 | 0.00 | 1.09 | 1.09 | 75 | 1014.5 |
| 20260901021504 | 17 | 150 | 0.0 | 0.0 | 0.00 | 1.09 | 1.09 | 75 | 1014.3 |
| 20260901020006 | 18 | 150 | 0.0 | 0.0 | 0.00 | 1.09 | 1.09 | 73 | 1014.2 |
| 20260901014503 | 18 | 360 | 0.0 | 0.0 | 0.00 | 1.09 | 1.09 | 72 | 1014.4 |
| 20260901013004 | 19 | 150 | 0.0 | 0.0 | 0.00 | 1.09 | 1.09 | 70 | 1014.4 |
| 20260901011502 | 20 | 150 | 0.0 | 0.0 | 0.00 | 1.09 | 1.09 | 65 | 1014.4 |
| 20260901004503 | 20 | 150 | 0.0 | 4.8 | 0.00 | 1.09 | 1.09 | 63 | 1014.4 |
| 20260901003004 | 20 | 360 | 0.0 | 0.0 | 0.00 | 1.09 | 1.09 | 61 | 1014.4 |
| 20260901000005 | 21 | 142 | 0.0 | 6.4 | 0.00 | 1.09 | 1.09 | 56 | 1014.9 |
| 20260831233005 | 22 | 360 | 0.0 | 4.8 | 0.00 | 1.09 | 1.09 | 56 | 1015.1 |
| 20260831231502 | 21 | 90 | 1.6 | 12.9 | 0.00 | 1.09 | 1.09 | 58 | 1015.0 |
| 20260831230005 | 20 | 154 | 1.6 | 11.3 | 0.00 | 1.09 | 1.09 | 62 | 1015.1 |
| 20260831223004 | 20 | 360 | 1.6 | 6.4 | 0.00 | 1.09 | 1.09 | 63 | 1015.6 |
| 20260831220005 | 19 | 144 | 0.0 | 4.8 | 0.00 | 1.09 | 1.09 | 64 | 1016.0 |
| 20260831214502 | 18 | 144 | 0.0 | 1.6 | 0.00 | 1.09 | 1.09 | 68 | 1016.3 |
| 20260831213005 | 18 | 178 | 0.0 | 0.0 | 0.00 | 1.09 | 1.09 | 70 | 1016.4 |
| 20260831210005 | 18 | 360 | 4.8 | 9.7 | 0.00 | 1.09 | 1.09 | 70 | 1016.8 |
| 20260831204502 | 18 | 360 | 1.6 | 6.4 | 0.00 | 1.09 | 1.09 | 73 | 1016.9 |
| 20260831203004 | 18 | 168 | 0.0 | 4.8 | 0.00 | 1.09 | 1.09 | 72 | 1017.0 |
| 20260831201504 | 18 | 167 | 1.6 | 8.0 | 0.00 | 1.09 | 1.09 | 71 | 1016.7 |
| 20260831200005 | 18 | 126 | 3.2 | 11.3 | 0.00 | 1.09 | 1.09 | 70 | 1017.1 |
| 20260831193004 | 18 | 127 | 1.6 | 8.0 | 0.00 | 1.09 | 1.09 | 72 | 1017.3 |
| 20260831191502 | 18 | 360 | 0.0 | 4.8 | 0.00 | 1.09 | 1.09 | 74 | 1017.0 |
| 20260831190005 | 18 | 360 | 0.0 | 0.0 | 0.00 | 1.09 | 1.09 | 74 | 1016.9 |
| 20260831184503 | 17 | 360 | 3.2 | 9.7 | 0.00 | 1.09 | 1.09 | 75 | 1017.2 |
| 20260831183004 | 17 | 146 | 1.6 | 4.8 | 0.00 | 1.09 | 1.09 | 78 | 1017.3 |
| 20260831180005 | 16 | 360 | 0.0 | 9.7 | 0.00 | 1.09 | 1.09 | 85 | 1017.4 |
| 20260831174502 | 16 | 360 | 1.6 | 8.0 | 0.00 | 1.09 | 1.09 | 87 | 1017.5 |
| 20260831173003 | 15 | 123 | 1.6 | 6.4 | 0.00 | 1.09 | 1.09 | 89 | 1017.8 |
| 20260831171502 | 15 | 143 | 1.6 | 4.8 | 0.00 | 1.09 | 1.09 | 90 | 1018.1 |
| 20260831170005 | 15 | 360 | 1.6 | 12.9 | 0.00 | 1.09 | 1.09 | 91 | 1018.3 |
| 20260831164502 | 15 | 360 | 3.2 | 14.5 | 0.00 | 1.09 | 1.09 | 90 | 1018.5 |
| 20260831163003 | 15 | 360 | 0.0 | 0.0 | 0.00 | 1.09 | 1.09 | 91 | 1018.4 |
| 20260831161502 | 15 | 360 | 0.0 | 0.0 | 0.03 | 1.09 | 1.09 | 91 | 1018.3 |
| 20260831154502 | 15 | 115 | 0.0 | 4.8 | 0.03 | 1.09 | 1.09 | 89 | 1017.7 |
| 20260831151502 | 15 | 32 | 0.0 | 6.4 | 0.03 | 1.07 | 1.07 | 90 | 1017.5 |
| 20260831150005 | 15 | 149 | 0.0 | 4.8 | 0.03 | 1.07 | 1.07 | 90 | 1017.7 |
| 20260831144502 | 15 | 360 | 3.2 | 12.9 | 0.03 | 1.07 | 1.07 | 88 | 1017.9 |
| 20260831143004 | 15 | 151 | 3.2 | 17.7 | 0.00 | 1.04 | 1.04 | 86 | 1017.7 |
| 20260831140005 | 15 | 157 | 1.6 | 9.7 | 0.00 | 1.04 | 1.04 | 82 | 1016.8 |
| 20260831134502 | 15 | 360 | 0.0 | 0.0 | 0.00 | 1.04 | 1.04 | 83 | 1016.0 |
| 20260831133003 | 15 | 360 | 0.0 | 0.0 | 0.00 | 1.04 | 1.04 | 84 | 1015.6 |
| 20260831130005 | 15 | 360 | 0.0 | 1.6 | 0.00 | 1.04 | 1.04 | 82 | 1015.0 |
| 20260831124502 | 15 | 360 | 0.0 | 1.6 | 0.00 | 1.04 | 1.04 | 81 | 1014.3 |
| 20260831123003 | 15 | 360 | 1.6 | 6.4 | 0.00 | 1.04 | 1.04 | 82 | 1014.1 |
| 20260831121502 | 15 | 355 | 4.8 | 11.3 | 0.00 | 1.04 | 1.04 | 82 | 1014.2 |
| 20260831120005 | 15 | 360 | 0.0 | 3.2 | 0.00 | 1.04 | 1.04 | 82 | 1014.0 |
| 20260831114502 | 16 | 93 | 1.6 | 6.4 | 0.00 | 1.04 | 1.04 | 77 | 1014.0 |
| 20260831111502 | 16 | 360 | 3.2 | 16.1 | 0.00 | 1.04 | 1.04 | 75 | 1014.3 |
| 20260831110005 | 16 | 65 | 1.6 | 8.0 | 0.00 | 1.04 | 1.04 | 75 | 1014.4 |
| 20260831104502 | 16 | 360 | 0.0 | 4.8 | 0.00 | 1.04 | 1.04 | 78 | 1013.8 |
| 20260831103005 | 16 | 360 | 4.8 | 9.7 | 0.03 | 1.04 | 1.04 | 76 | 1013.7 |
| 20260831100004 | 15 | 48 | 8.0 | 16.1 | 0.15 | 1.04 | 1.04 | 83 | 1014.4 |
| 20260831094501 | 15 | 12 | 14.5 | 30.6 | 0.15 | 1.09 | 1.04 | 84 | 1014.5 |
| 20260831093002 | 14 | 360 | 12.9 | 24.1 | 0.13 | 1.07 | 1.02 | 88 | 1015.5 |
| 20260831091501 | 14 | 360 | 4.8 | 9.7 | 0.03 | 0.97 | 0.91 | 90 | 1016.8 |
| 20260831090004 | 14 | 360 | 8.0 | 19.3 | 0.05 | 0.94 | 0.89 | 91 | 1016.1 |
| 20260831084501 | 15 | 360 | 3.2 | 9.7 | 0.20 | 0.97 | 0.89 | 93 | 1015.6 |
| 20260831083002 | 15 | 360 | 1.6 | 6.4 | 0.28 | 0.97 | 0.89 | 92 | 1015.8 |
| 20260831081501 | 15 | 360 | 4.8 | 14.5 | 0.84 | 0.97 | 0.89 | 92 | 1015.5 |
| 20260831080004 | 15 | 360 | 4.8 | 14.5 | 0.81 | 0.89 | 0.81 | 91 | 1016.4 |
| 20260831074501 | 15 | 360 | 3.2 | 11.3 | 0.69 | 1.65 | 0.69 | 91 | 1016.8 |
| 20260831073002 | 16 | 360 | 9.7 | 22.5 | 0.61 | 1.57 | 0.61 | 88 | 1017.2 |
| 20260831071501 | 17 | 360 | 11.3 | 27.4 | 0.05 | 1.02 | 0.05 | 79 | 1016.6 |
| 20260831070006 | 19 | 360 | 9.7 | 27.4 | 0.00 | 0.97 | 0.00 | 72 | 1015.8 |
| 20260831063003 | 21 | 360 | 0.0 | 0.0 | 0.00 | 1.24 | 0.97 | 62 | 1014.2 |